Mastic, NY

5:10 PM EDT on September 26, 2016 (GMT -0400)
Brookhaven

Weather History for KHWV - November, 2012

Change the Weather History Date:

Wednesday, November 7, 2012

  Actual Average (KISP) Record (KISP)
Temperature  
Mean Temperature 38 °F 48 °F  
Max Temperature 43 °F 56 °F 66 °F (1996)
Min Temperature 33 °F 39 °F 27 °F (2002)
Degree Days  
Heating Degree Days 27 17  
Month to date heating degree days 115  
Since 1 July heating degree days 535  
Cooling Degree Days 0 0  
Month to date cooling degree days 0  
Year to date cooling degree days 787  
Moisture  
Dew Point 33 °F    
Average Humidity 83    
Maximum Humidity 100    
Minimum Humidity 55    
Precipitation  
Precipitation 0.87 in 0.12 in 0.98 in (1995)
Month to date precipitation 0.81  
Year to date precipitation 39.32  
Snow  
Snow 0.00 in 0.00 in 1.70 in (2012)
Month to date snowfall 0.0  
Since 1 July snowfall 0.0  
Snow Depth -    
Sea Level Pressure  
Sea Level Pressure 29.80 in    
Wind  
Wind Speed 14 mph (North)    
Max Wind Speed 26 mph    
Max Gust Speed 40 mph    
Visibility 7 miles    
Events Rain , Snow    
T = Trace of Precipitation, MM = Missing Value Source: NWS Daily Summary

Daily Weather History Graph

Daily Weather History Graph

Search for Another Location

Airport or City:

Trip Planner

Search our weather history database for the weather conditions in past years. The results will help you decide how hot, cold, wet, or windy it might be!

Date:

Astronomy

Nov. 07, 2012 Rise Set
Actual Time 6:29 AM EST 4:40 PM EST
Civil Twilight 6:00 AM EST 5:09 PM EST
Nautical Twilight 5:27 AM EST 5:41 PM EST
Astronomical Twilight 4:55 AM EST 6:13 PM EST
Moon No Moon Rise 12:50 PM EST (11/7)
Length of Visible Light 11h 08m
Length of Day
10h 10m
Last Quarter, 43% of the Moon is Illuminated
Nov 7
Last Quarter
Nov 13
New
Nov 20
First Quarter
Nov 28
Full
Dec 6
Last Quarter

Hourly Weather History & Observations

Time (EST) Temp. Windchill Dew Point Humidity Pressure Visibility Wind Dir Wind Speed Gust Speed Precip Events Conditions
12:56 AM 39.0 °F 34.0 °F 24.1 °F 55% 30.05 in 10.0 mi NNE 6.9 mph - N/A   Clear
1:56 AM 41.0 °F 37.1 °F 30.9 °F 67% 30.04 in 10.0 mi Variable 5.8 mph - N/A   Partly Cloudy
2:56 AM 41.0 °F 34.3 °F 33.1 °F 73% 29.98 in 10.0 mi NE 11.5 mph 26.5 mph N/A   Partly Cloudy
3:56 AM 42.1 °F 38.4 °F 32.0 °F 67% 29.99 in 10.0 mi Variable 5.8 mph 19.6 mph N/A   Overcast
4:56 AM 43.0 °F 37.2 °F 32.0 °F 65% 29.95 in 10.0 mi NNE 10.4 mph 21.9 mph N/A   Overcast
5:56 AM 43.0 °F 36.4 °F 32.0 °F 65% 29.95 in 10.0 mi NNE 12.7 mph 23.0 mph N/A   Overcast
6:22 AM 42.8 °F 36.2 °F 32.0 °F 66% 29.93 in 10.0 mi NNE 12.7 mph 21.9 mph N/A   Overcast
6:43 AM 42.8 °F 35.8 °F 30.2 °F 61% 29.93 in 10.0 mi NNE 13.8 mph 27.6 mph N/A   Overcast
6:56 AM 42.1 °F 36.6 °F 32.0 °F 67% 29.93 in 10.0 mi NNE 9.2 mph 21.9 mph N/A   Overcast
7:56 AM 43.0 °F 36.4 °F 30.9 °F 62% 29.92 in 10.0 mi NNE 12.7 mph 23.0 mph N/A   Overcast
8:56 AM 43.0 °F 36.0 °F 30.9 °F 62% 29.90 in 10.0 mi NNE 13.8 mph 28.8 mph N/A   Overcast
9:09 AM 41.0 °F 33.1 °F 33.8 °F 76% 29.90 in 8.0 mi NNE 15.0 mph 28.8 mph 0.01 in Rain Light Rain
9:41 AM 39.2 °F 31.2 °F 33.8 °F 81% 29.86 in 2.0 mi NNE 13.8 mph 29.9 mph 0.14 in Rain Heavy Rain
9:56 AM 37.9 °F 30.5 °F 34.0 °F 86% 29.86 in 2.5 mi NNE 11.5 mph 28.8 mph 0.21 in Rain Heavy Rain
10:19 AM 37.4 °F 28.2 °F 35.6 °F 93% 29.84 in 4.0 mi North 16.1 mph 32.2 mph 0.11 in Rain Rain
10:29 AM 39.2 °F 31.2 °F 35.6 °F 87% 29.84 in 5.0 mi North 13.8 mph 25.3 mph 0.14 in Rain Rain
10:56 AM 39.9 °F 31.4 °F 36.0 °F 86% 29.83 in 8.0 mi North 16.1 mph 34.5 mph 0.18 in Rain Light Rain
11:44 AM 39.2 °F 30.5 °F 35.6 °F 87% 29.79 in 10.0 mi North 16.1 mph 40.3 mph 0.07 in Rain Light Rain
11:56 AM 39.9 °F 30.8 °F 36.0 °F 86% 29.79 in 10.0 mi NNE 18.4 mph 35.7 mph 0.07 in Rain Light Rain
12:19 PM 39.2 °F 30.5 °F 35.6 °F 87% 29.78 in 10.0 mi NNE 16.1 mph 28.8 mph 0.01 in Rain Light Rain
12:56 PM 39.9 °F 30.5 °F 36.0 °F 86% 29.77 in 10.0 mi North 19.6 mph 35.7 mph 0.02 in Rain Light Rain
1:30 PM 39.2 °F 29.8 °F 35.6 °F 87% 29.75 in 8.0 mi North 18.4 mph 33.4 mph 0.03 in Rain Light Rain
1:56 PM 39.0 °F 30.3 °F 35.1 °F 86% 29.75 in 9.0 mi North 16.1 mph 33.4 mph 0.05 in Rain Light Rain
2:56 PM 37.0 °F 27.4 °F 34.0 °F 89% 29.75 in 5.0 mi North 17.3 mph 34.5 mph 0.09 in Rain Rain
3:23 PM 35.6 °F 24.2 °F 33.8 °F 93% 29.73 in 3.0 mi North 21.9 mph 34.5 mph 0.07 in Snow Light Snow
3:56 PM 36.0 °F 23.9 °F 33.1 °F 89% 29.72 in 2.5 mi North 25.3 mph 33.4 mph 0.12 in Snow Light Snow
4:17 PM 35.6 °F 24.5 °F 33.8 °F 93% 29.71 in 1.8 mi North 20.7 mph 39.1 mph 0.03 in Snow Light Snow
4:28 PM 35.6 °F 24.5 °F 32.0 °F 87% 29.72 in 2.0 mi North 20.7 mph 39.1 mph 0.04 in Snow Light Snow
4:38 PM 33.8 °F 21.9 °F 32.0 °F 93% 29.72 in 1.5 mi North 21.9 mph 35.7 mph 0.06 in Snow Light Snow
4:56 PM 34.0 °F 22.7 °F 32.0 °F 92% 29.73 in 2.0 mi North 19.6 mph 32.2 mph 0.07 in Snow Light Snow
5:09 PM 33.8 °F 22.5 °F 32.0 °F 93% 29.72 in 4.0 mi North 19.6 mph 29.9 mph 0.00 in Snow Light Snow
5:41 PM 33.8 °F 22.5 °F 30.2 °F 87% 29.73 in 7.0 mi North 19.6 mph 35.7 mph 0.00 in Snow Light Snow
5:56 PM 34.0 °F 22.1 °F 30.9 °F 89% 29.73 in 3.0 mi North 21.9 mph 38.0 mph 0.00 in Snow Light Snow
6:56 PM 35.1 °F 23.5 °F 33.1 °F 92% 29.73 in 4.0 mi North 21.9 mph 38.0 mph 0.02 in Snow Light Snow
7:56 PM 35.1 °F 23.3 °F 33.1 °F 92% 29.71 in 10.0 mi North 23.0 mph 35.7 mph 0.00 in Rain Light Rain
8:56 PM 35.1 °F 22.5 °F 34.0 °F 96% 29.70 in 10.0 mi North 26.5 mph 36.8 mph 0.00 in Rain Light Rain
9:12 PM 35.6 °F 24.0 °F 33.8 °F 93% 29.69 in 10.0 mi North 23.0 mph 40.3 mph 0.00 in Snow Light Snow
9:39 PM 35.6 °F 24.2 °F 33.8 °F 93% 29.69 in 9.0 mi North 21.9 mph 40.3 mph 0.00 in   Overcast
9:56 PM 35.1 °F 24.1 °F 33.1 °F 92% 29.69 in 10.0 mi North 19.6 mph 34.5 mph 0.00 in Rain Light Rain
10:18 PM 35.6 °F 24.2 °F 33.8 °F 93% 29.69 in 9.0 mi North 21.9 mph 34.5 mph 0.01 in Rain Light Rain
10:56 PM 34.0 °F 21.5 °F 33.1 °F 96% 29.69 in 4.0 mi North 24.2 mph 35.7 mph 0.03 in Snow Light Snow
11:05 PM 33.8 °F 21.9 °F 33.8 °F 100% 29.69 in 5.0 mi North 21.9 mph 40.3 mph 0.01 in Snow Light Snow
11:56 PM 34.0 °F 22.1 °F 33.1 °F 96% 29.70 in 5.0 mi North 21.9 mph 34.5 mph 0.01 in Snow Light Snow